User: anonymous   Login
Location: Unspecified
(0.0000°N, 0.0000°E)
Time: 08:22:33
(UTC+00:00)
Language:

IBEX - Orbit

View from above orbital plane
View from above orbital plane
View from above satellite
View from above satellite

Ground track
Ground track

The orbit data is extracted from the following two-line orbital elements,

1 33401U 08051A   15024.21761109 -.00002246  00000-0  00000+0 0  1248
2 33401 014.8287 136.4259 5968892 001.5385 358.8058 00.12098384  2679
Epoch (UTC): 24 January 2015 05:13:21
Eccentricity: 0.5968892
inclination: 14.8287°
perigee height: 63231 km
apogee height: 269375 km
right ascension of ascending node: 136.4259°
argument of perigee: 1.5385°
revolutions per day: 0.12098384
mean anomaly at epoch: 358.8058°
orbit number at epoch: 267

The dashed part of the orbit path shows where the satellite is in the earth's shadow,  

DLR